Year,Month,Day,Hour,Minute,Value (Times are PST for temperature in C)
2010,06,04,00,00,11.90
2010,06,04,00,01,11.90
2010,06,04,00,02,11.90
2010,06,04,00,03,11.90
2010,06,04,00,04,11.80
2010,06,04,00,05,11.80
2010,06,04,00,06,11.80
2010,06,04,00,07,11.80
2010,06,04,00,08,11.80
2010,06,04,00,09,11.80
2010,06,04,00,10,11.80
2010,06,04,00,11,11.80
2010,06,04,00,12,11.80
2010,06,04,00,13,11.80
2010,06,04,00,14,11.80
2010,06,04,00,15,11.80
2010,06,04,00,16,11.80
2010,06,04,00,17,11.80
2010,06,04,00,18,11.80
2010,06,04,00,19,11.80
2010,06,04,00,20,11.70
2010,06,04,00,21,11.70
2010,06,04,00,22,11.70
2010,06,04,00,23,11.70
2010,06,04,00,24,11.70
2010,06,04,00,25,11.70
2010,06,04,00,26,11.70
2010,06,04,00,27,11.70
2010,06,04,00,28,11.70
2010,06,04,00,29,11.70
2010,06,04,00,30,11.70
2010,06,04,00,31,11.60
2010,06,04,00,32,11.60
2010,06,04,00,33,11.60
2010,06,04,00,34,11.60
2010,06,04,00,35,11.60
2010,06,04,00,36,11.60
2010,06,04,00,37,11.60
2010,06,04,00,38,11.60
2010,06,04,00,39,11.60
2010,06,04,00,40,11.60
2010,06,04,00,41,11.60
2010,06,04,00,42,11.60
2010,06,04,00,43,11.60
2010,06,04,00,44,11.60
2010,06,04,00,45,11.60
2010,06,04,00,46,11.60
2010,06,04,00,47,11.60
2010,06,04,00,48,11.60
2010,06,04,00,49,11.50
2010,06,04,00,50,11.40
2010,06,04,00,51,11.40
2010,06,04,00,52,11.40
2010,06,04,00,53,11.40
2010,06,04,00,54,11.40
2010,06,04,00,55,11.40
2010,06,04,00,56,11.40
2010,06,04,00,57,11.40
2010,06,04,00,58,11.40
2010,06,04,00,59,11.40
2010,06,04,01,00,11.40
2010,06,04,01,01,11.40
2010,06,04,01,02,11.40
2010,06,04,01,03,11.40
2010,06,04,01,04,11.40
2010,06,04,01,05,11.40
2010,06,04,01,06,11.40
2010,06,04,01,07,11.50
2010,06,04,01,08,11.60
2010,06,04,01,09,11.60
2010,06,04,01,10,11.60
2010,06,04,01,11,11.60
2010,06,04,01,12,11.60
2010,06,04,01,13,11.60
2010,06,04,01,14,11.60
2010,06,04,01,15,11.60
2010,06,04,01,16,11.60
2010,06,04,01,17,11.60
2010,06,04,01,18,11.60
2010,06,04,01,19,11.60
2010,06,04,01,20,11.60
2010,06,04,01,21,11.60
2010,06,04,01,22,11.60
2010,06,04,01,23,11.60
2010,06,04,01,24,11.60
2010,06,04,01,25,11.60
2010,06,04,01,26,11.60
2010,06,04,01,27,11.60
2010,06,04,01,28,11.60
2010,06,04,01,29,11.70
2010,06,04,01,30,11.70
2010,06,04,01,31,11.70
2010,06,04,01,32,11.70
2010,06,04,01,33,11.70
2010,06,04,01,34,11.80
2010,06,04,01,35,11.80
2010,06,04,01,36,11.80
2010,06,04,01,37,11.80
2010,06,04,01,38,11.80
2010,06,04,01,39,11.80
2010,06,04,01,40,11.70
2010,06,04,01,41,11.70
2010,06,04,01,42,11.70
2010,06,04,01,43,11.70
2010,06,04,01,44,11.60
2010,06,04,01,45,11.60
2010,06,04,01,46,11.60
2010,06,04,01,47,11.60
2010,06,04,01,48,11.60
2010,06,04,01,49,11.60
2010,06,04,01,50,11.60
2010,06,04,01,51,11.60
2010,06,04,01,52,11.60
2010,06,04,01,53,11.60
2010,06,04,01,54,11.50
2010,06,04,01,55,11.40
2010,06,04,01,56,11.40
2010,06,04,01,57,11.40
2010,06,04,01,58,11.40
2010,06,04,01,59,11.40
2010,06,04,02,00,11.40
2010,06,04,02,01,11.40
2010,06,04,02,02,11.40
2010,06,04,02,03,11.40
2010,06,04,02,04,11.40
2010,06,04,02,05,11.40
2010,06,04,02,06,11.40
2010,06,04,02,07,11.40
2010,06,04,02,08,11.40
2010,06,04,02,09,11.40
2010,06,04,02,10,11.40
2010,06,04,02,11,11.40
2010,06,04,02,12,11.50
2010,06,04,02,13,11.60
2010,06,04,02,14,11.60
2010,06,04,02,15,11.60
2010,06,04,02,16,11.60
2010,06,04,02,17,11.60
2010,06,04,02,18,11.60
2010,06,04,02,19,11.50
2010,06,04,02,20,11.60
2010,06,04,02,21,11.60
2010,06,04,02,22,11.60
2010,06,04,02,23,11.60
2010,06,04,02,24,11.60
2010,06,04,02,25,11.60
2010,06,04,02,26,11.60
2010,06,04,02,27,11.60
2010,06,04,02,28,11.60
2010,06,04,02,29,11.60
2010,06,04,02,30,11.50
2010,06,04,02,31,11.40
2010,06,04,02,32,11.40
2010,06,04,02,33,11.40
2010,06,04,02,34,11.40
2010,06,04,02,35,11.40
2010,06,04,02,36,11.40
2010,06,04,02,37,11.40
2010,06,04,02,38,11.40
2010,06,04,02,39,11.40
2010,06,04,02,40,11.30
2010,06,04,02,41,11.30
2010,06,04,02,42,11.30
2010,06,04,02,43,11.30
2010,06,04,02,44,11.20
2010,06,04,02,45,11.20
2010,06,04,02,46,11.20
2010,06,04,02,47,11.10
2010,06,04,02,48,11.10
2010,06,04,02,49,11.10
2010,06,04,02,50,11.10
2010,06,04,02,51,11.10
2010,06,04,02,52,11.00
2010,06,04,02,53,10.90
2010,06,04,02,54,10.90
2010,06,04,02,55,10.90
2010,06,04,02,56,10.90
2010,06,04,02,57,10.90
2010,06,04,02,58,10.80
2010,06,04,02,59,10.80
2010,06,04,03,00,10.80
2010,06,04,03,01,10.80
2010,06,04,03,02,10.80
2010,06,04,03,03,10.80
2010,06,04,03,04,10.70
2010,06,04,03,05,10.70
2010,06,04,03,06,10.70
2010,06,04,03,07,10.70
2010,06,04,03,08,10.70
2010,06,04,03,09,10.70
2010,06,04,03,10,10.70
2010,06,04,03,11,10.70
2010,06,04,03,12,10.70
2010,06,04,03,13,10.70
2010,06,04,03,14,10.70
2010,06,04,03,15,10.60
2010,06,04,03,16,10.60
2010,06,04,03,17,10.60
2010,06,04,03,18,10.60
2010,06,04,03,19,10.60
2010,06,04,03,20,10.60
2010,06,04,03,21,10.60
2010,06,04,03,22,10.60
2010,06,04,03,23,10.60
2010,06,04,03,24,10.60
2010,06,04,03,25,10.60
2010,06,04,03,26,10.60
2010,06,04,03,27,10.60
2010,06,04,03,28,10.60
2010,06,04,03,29,10.60
2010,06,04,03,30,10.60
2010,06,04,03,31,10.60
2010,06,04,03,32,10.60
2010,06,04,03,33,10.60
2010,06,04,03,34,10.60
2010,06,04,03,35,10.60
2010,06,04,03,36,10.60
2010,06,04,03,37,10.60
2010,06,04,03,38,10.60
2010,06,04,03,39,10.60
2010,06,04,03,40,10.60
2010,06,04,03,41,10.60
2010,06,04,03,42,10.60
2010,06,04,03,43,10.60
2010,06,04,03,44,10.60
2010,06,04,03,45,10.60
2010,06,04,03,46,10.70
2010,06,04,03,47,10.70
2010,06,04,03,48,10.70
2010,06,04,03,49,10.70
2010,06,04,03,50,10.80
2010,06,04,03,51,10.80
2010,06,04,03,52,10.80
2010,06,04,03,53,10.80
2010,06,04,03,54,10.80
2010,06,04,03,55,10.80
2010,06,04,03,56,10.80
2010,06,04,03,57,10.80
2010,06,04,03,58,10.80
2010,06,04,03,59,10.80
2010,06,04,04,00,10.80
2010,06,04,04,01,10.80
2010,06,04,04,02,10.80
2010,06,04,04,03,10.90
2010,06,04,04,04,10.90
2010,06,04,04,05,10.90
2010,06,04,04,06,10.90
2010,06,04,04,07,10.90
2010,06,04,04,08,10.80
2010,06,04,04,09,10.80
2010,06,04,04,10,10.80
2010,06,04,04,11,10.80
2010,06,04,04,12,10.80
2010,06,04,04,13,10.80
2010,06,04,04,14,10.80
2010,06,04,04,15,10.80
2010,06,04,04,16,10.80
2010,06,04,04,17,10.80
2010,06,04,04,18,10.80
2010,06,04,04,19,10.80
2010,06,04,04,20,10.80
2010,06,04,04,21,10.80
2010,06,04,04,22,10.80
2010,06,04,04,23,10.80
2010,06,04,04,24,10.70
2010,06,04,04,25,10.70
2010,06,04,04,26,10.70
2010,06,04,04,27,10.70
2010,06,04,04,28,10.70
2010,06,04,04,29,10.70
2010,06,04,04,30,10.60
2010,06,04,04,31,10.60
2010,06,04,04,32,10.60
2010,06,04,04,33,10.50
2010,06,04,04,34,10.40
2010,06,04,04,35,10.40
2010,06,04,04,36,10.40
2010,06,04,04,37,10.40
2010,06,04,04,38,10.40
2010,06,04,04,39,10.30
2010,06,04,04,40,10.30
2010,06,04,04,41,10.30
2010,06,04,04,42,10.20
2010,06,04,04,43,10.20
2010,06,04,04,44,10.20
2010,06,04,04,45,10.20
2010,06,04,04,46,10.20
2010,06,04,04,47,10.20
2010,06,04,04,48,10.20
2010,06,04,04,49,10.20
2010,06,04,04,50,10.20
2010,06,04,04,51,10.20
2010,06,04,04,52,10.20
2010,06,04,04,53,10.20
2010,06,04,04,54,10.20
2010,06,04,04,55,10.10
2010,06,04,04,56,10.10
2010,06,04,04,57,10.10
2010,06,04,04,58,10.10
2010,06,04,04,59,10.10
2010,06,04,05,00,10.10
2010,06,04,05,01,10.10
2010,06,04,05,02,10.10
2010,06,04,05,03,10.10
2010,06,04,05,04,10.10
2010,06,04,05,05,10.10
2010,06,04,05,06,10.10
2010,06,04,05,07,10.10
2010,06,04,05,08,10.10
2010,06,04,05,09,10.10
2010,06,04,05,10,10.10
2010,06,04,05,11,10.10
2010,06,04,05,12,10.10
2010,06,04,05,13,10.10
2010,06,04,05,14,10.10
2010,06,04,05,15,10.10
2010,06,04,05,16,10.10
2010,06,04,05,17,10.10
2010,06,04,05,18,10.10
2010,06,04,05,19,10.10
2010,06,04,05,20,10.10
2010,06,04,05,21,10.20
2010,06,04,05,22,10.20
2010,06,04,05,23,10.20
2010,06,04,05,24,10.20
2010,06,04,05,25,10.20
2010,06,04,05,26,10.20
2010,06,04,05,27,10.20
2010,06,04,05,28,10.20
2010,06,04,05,29,10.20
2010,06,04,05,30,10.30
2010,06,04,05,31,10.20
2010,06,04,05,32,10.20
2010,06,04,05,33,10.30
2010,06,04,05,34,10.30
2010,06,04,05,35,10.30
2010,06,04,05,36,10.30
2010,06,04,05,37,10.30
2010,06,04,05,38,10.30
2010,06,04,05,39,10.30
2010,06,04,05,40,10.30
2010,06,04,05,41,10.40
2010,06,04,05,42,10.30
2010,06,04,05,43,10.30
2010,06,04,05,44,10.30
2010,06,04,05,45,10.30
2010,06,04,05,46,10.30
2010,06,04,05,47,10.20
2010,06,04,05,48,10.20
2010,06,04,05,49,10.20
2010,06,04,05,50,10.20
2010,06,04,05,51,10.20
2010,06,04,05,52,10.20
2010,06,04,05,53,10.20
2010,06,04,05,54,10.20
2010,06,04,05,55,10.20
2010,06,04,05,56,10.20
2010,06,04,05,57,10.20
2010,06,04,05,58,10.10
2010,06,04,05,59,10.10
2010,06,04,06,00,10.10
2010,06,04,06,01,10.10
2010,06,04,06,02,10.10
2010,06,04,06,03,10.10
2010,06,04,06,04,10.10
2010,06,04,06,05,10.10
2010,06,04,06,06,10.10
2010,06,04,06,07,10.10
2010,06,04,06,08,10.10
2010,06,04,06,09,10.10
2010,06,04,06,10,10.10
2010,06,04,06,11,10.10
2010,06,04,06,12,10.10
2010,06,04,06,13,10.10
2010,06,04,06,14,10.10
2010,06,04,06,15,10.10
2010,06,04,06,16,10.20
2010,06,04,06,17,10.20
2010,06,04,06,18,10.20
2010,06,04,06,19,10.20
2010,06,04,06,20,10.10
2010,06,04,06,21,10.10
2010,06,04,06,22,10.20
2010,06,04,06,23,10.20
2010,06,04,06,24,10.20
2010,06,04,06,25,10.20
2010,06,04,06,26,10.20
2010,06,04,06,27,10.20
2010,06,04,06,28,10.20
2010,06,04,06,29,10.20
2010,06,04,06,30,10.20
2010,06,04,06,31,10.20
2010,06,04,06,32,10.20
2010,06,04,06,33,10.20
2010,06,04,06,34,10.20
2010,06,04,06,35,10.20
2010,06,04,06,36,10.20
2010,06,04,07,09,10.30
2010,06,04,07,10,10.40
2010,06,04,07,11,10.40
2010,06,04,07,12,10.40
2010,06,04,07,13,10.40
2010,06,04,07,14,10.40
2010,06,04,07,15,10.40
2010,06,04,07,16,10.40
2010,06,04,07,17,10.40
2010,06,04,07,18,10.40
2010,06,04,07,19,10.40
2010,06,04,07,20,10.40
2010,06,04,07,21,10.40
2010,06,04,07,22,10.40
2010,06,04,07,23,10.40
2010,06,04,07,24,10.40
2010,06,04,07,25,10.40
2010,06,04,07,26,10.40
2010,06,04,07,27,10.40
2010,06,04,07,28,10.40
2010,06,04,07,29,10.50
2010,06,04,07,30,10.60
2010,06,04,07,31,10.60
2010,06,04,07,32,10.60
2010,06,04,07,33,10.60
2010,06,04,07,34,10.60
2010,06,04,07,35,10.60
2010,06,04,07,36,10.60
2010,06,04,07,37,10.60
2010,06,04,07,38,10.70
2010,06,04,07,39,10.70
2010,06,04,07,40,10.70
2010,06,04,07,41,10.70
2010,06,04,07,42,10.70
2010,06,04,07,43,10.70
2010,06,04,07,44,10.70
2010,06,04,07,45,10.80
2010,06,04,07,46,10.80
2010,06,04,07,47,10.80
2010,06,04,07,48,10.80
2010,06,04,07,49,10.90
2010,06,04,07,50,10.90
2010,06,04,07,51,10.90
2010,06,04,07,52,10.90
2010,06,04,07,53,10.90
2010,06,04,07,54,10.90
2010,06,04,07,55,10.90
2010,06,04,07,56,10.90
2010,06,04,07,57,10.90
2010,06,04,07,58,10.90
2010,06,04,07,59,11.10
2010,06,04,08,00,11.00
2010,06,04,08,01,10.90
2010,06,04,08,02,10.90
2010,06,04,08,03,10.90
2010,06,04,08,04,11.00
2010,06,04,08,05,11.10
2010,06,04,08,06,11.10
2010,06,04,08,07,11.10
2010,06,04,08,08,11.00
2010,06,04,08,09,10.90
2010,06,04,08,10,10.90
2010,06,04,08,11,11.00
2010,06,04,08,12,11.10
2010,06,04,08,13,11.10
2010,06,04,08,14,11.10
2010,06,04,08,15,11.20
2010,06,04,08,16,11.30
2010,06,04,08,17,11.30
2010,06,04,08,18,11.30
2010,06,04,08,19,11.30
2010,06,04,08,20,11.30
2010,06,04,08,21,11.30
2010,06,04,08,22,11.30
2010,06,04,08,23,11.30
2010,06,04,08,24,11.30
2010,06,04,08,25,11.30
2010,06,04,08,26,11.30
2010,06,04,08,27,11.30
2010,06,04,08,28,11.30
2010,06,04,08,29,11.30
2010,06,04,08,30,11.30
2010,06,04,08,31,11.30
2010,06,04,08,32,11.40
2010,06,04,08,33,11.40
2010,06,04,08,34,11.40
2010,06,04,08,35,11.40
2010,06,04,08,36,11.50
2010,06,04,08,37,11.60
2010,06,04,08,38,11.60
2010,06,04,08,39,11.60
2010,06,04,08,40,11.60
2010,06,04,08,41,11.70
2010,06,04,08,42,11.70
2010,06,04,08,43,11.70
2010,06,04,08,44,11.70
2010,06,04,08,45,11.80
2010,06,04,08,46,11.80
2010,06,04,08,47,11.80
2010,06,04,08,48,11.80
2010,06,04,08,49,11.80
2010,06,04,08,50,11.80
2010,06,04,08,51,11.90
2010,06,04,08,52,11.90
2010,06,04,08,53,12.00
2010,06,04,08,54,12.00
2010,06,04,08,55,12.00
2010,06,04,08,56,12.00
2010,06,04,08,57,12.10
2010,06,04,08,58,12.10
2010,06,04,08,59,12.20
2010,06,04,09,00,12.30
2010,06,04,09,01,12.20
2010,06,04,09,02,12.20
2010,06,04,09,03,12.20
2010,06,04,09,04,12.20
2010,06,04,09,05,12.20
2010,06,04,09,06,12.10
2010,06,04,09,07,12.20
2010,06,04,09,08,12.20
2010,06,04,09,09,12.20
2010,06,04,09,10,12.30
2010,06,04,09,11,12.30
2010,06,04,09,12,12.30
2010,06,04,09,13,12.30
2010,06,04,09,14,12.30
2010,06,04,09,15,12.30
2010,06,04,09,16,12.30
2010,06,04,09,17,12.30
2010,06,04,09,18,12.30
2010,06,04,09,19,12.20
2010,06,04,09,20,12.20
2010,06,04,09,21,12.20
2010,06,04,09,22,12.20
2010,06,04,09,23,12.20
2010,06,04,09,24,12.10
2010,06,04,09,25,12.20
2010,06,04,09,26,12.20
2010,06,04,09,27,12.20
2010,06,04,09,28,12.20
2010,06,04,09,29,12.20
2010,06,04,09,30,12.30
2010,06,04,09,31,12.30
2010,06,04,09,32,12.30
2010,06,04,09,33,12.30
2010,06,04,09,34,12.30
2010,06,04,09,35,12.40
2010,06,04,09,36,12.40
2010,06,04,09,37,12.40
2010,06,04,09,38,12.40
2010,06,04,09,39,12.40
2010,06,04,09,40,12.30
2010,06,04,09,41,12.30
2010,06,04,09,42,12.30
2010,06,04,09,43,12.30
2010,06,04,09,44,12.40
2010,06,04,09,45,12.50
2010,06,04,09,46,12.50
2010,06,04,09,47,12.60
2010,06,04,09,48,12.60
2010,06,04,09,49,12.60
2010,06,04,09,50,12.60
2010,06,04,09,51,12.70
2010,06,04,09,52,12.70
2010,06,04,09,53,12.70
2010,06,04,09,54,12.70
2010,06,04,09,55,12.70
2010,06,04,09,56,12.70
2010,06,04,09,57,12.70
2010,06,04,09,58,12.70
2010,06,04,09,59,12.80
2010,06,04,10,00,12.80
2010,06,04,10,01,12.80
2010,06,04,10,02,12.80
2010,06,04,10,03,12.80
2010,06,04,10,04,12.80
2010,06,04,10,05,12.80
2010,06,04,10,06,12.80
2010,06,04,10,07,12.80
2010,06,04,10,08,12.80
2010,06,04,10,09,12.80
2010,06,04,10,10,12.80
2010,06,04,10,11,12.80
2010,06,04,10,12,12.80
2010,06,04,10,13,12.80
2010,06,04,10,14,12.80
2010,06,04,10,15,12.90
2010,06,04,10,16,12.90
2010,06,04,10,17,13.00
2010,06,04,10,18,13.00
2010,06,04,10,19,13.00
2010,06,04,10,20,13.00
2010,06,04,10,21,13.00
2010,06,04,10,22,13.00
2010,06,04,10,23,13.00
2010,06,04,10,24,13.00
2010,06,04,10,25,13.00
2010,06,04,10,26,13.00
2010,06,04,10,27,13.00
2010,06,04,10,28,13.00
2010,06,04,10,29,13.00
2010,06,04,10,30,13.10
2010,06,04,10,31,13.10
2010,06,04,10,32,13.10
2010,06,04,10,33,13.10
2010,06,04,10,34,13.20
2010,06,04,10,35,13.30
2010,06,04,10,36,13.30
2010,06,04,10,37,13.30
2010,06,04,10,38,13.30
2010,06,04,10,39,13.30
2010,06,04,10,40,13.40
2010,06,04,10,41,13.50
2010,06,04,10,42,13.60
2010,06,04,10,43,13.60
2010,06,04,10,44,13.60
2010,06,04,10,45,13.50
2010,06,04,10,46,13.50
2010,06,04,10,47,13.50
2010,06,04,10,48,13.50
2010,06,04,10,49,13.40
2010,06,04,10,50,13.40
2010,06,04,10,51,13.50
2010,06,04,10,52,13.50
2010,06,04,10,53,13.40
2010,06,04,10,54,13.40
2010,06,04,10,55,13.40
2010,06,04,10,56,13.40
2010,06,04,10,57,13.40
2010,06,04,10,58,13.40
2010,06,04,10,59,13.40
2010,06,04,11,00,13.40
2010,06,04,11,01,13.50
2010,06,04,11,02,13.50
2010,06,04,11,03,13.60
2010,06,04,11,04,13.60
2010,06,04,11,05,13.60
2010,06,04,11,06,13.60
2010,06,04,11,07,13.60
2010,06,04,11,08,13.60
2010,06,04,11,09,13.70
2010,06,04,11,10,13.80
2010,06,04,11,11,13.90
2010,06,04,11,12,14.00
2010,06,04,11,13,14.10
2010,06,04,11,14,14.10
2010,06,04,11,15,14.00
2010,06,04,11,16,14.00
2010,06,04,11,17,14.00
2010,06,04,11,18,13.90
2010,06,04,11,19,13.90
2010,06,04,11,20,13.90
2010,06,04,11,21,13.80
2010,06,04,11,22,13.80
2010,06,04,11,23,13.70
2010,06,04,11,24,13.80
2010,06,04,11,25,13.80
2010,06,04,11,26,13.80
2010,06,04,11,27,13.80
2010,06,04,11,28,13.80
2010,06,04,11,29,13.90
2010,06,04,11,30,13.90
2010,06,04,11,31,14.00
2010,06,04,11,32,14.00
2010,06,04,11,33,14.10
2010,06,04,11,34,14.00
2010,06,04,11,35,14.00
2010,06,04,11,36,13.90
2010,06,04,11,37,13.90
2010,06,04,11,38,13.90
2010,06,04,11,39,13.90
2010,06,04,11,40,13.90
2010,06,04,11,41,13.90
2010,06,04,11,42,13.90
2010,06,04,11,43,14.00
2010,06,04,11,44,14.00
2010,06,04,11,45,14.00
2010,06,04,11,46,14.00
2010,06,04,11,47,14.00
2010,06,04,11,48,14.00
2010,06,04,11,49,14.00
2010,06,04,11,50,14.00
2010,06,04,11,51,14.00
2010,06,04,11,52,14.00
2010,06,04,11,53,14.00
2010,06,04,11,54,14.10
2010,06,04,11,55,14.20
2010,06,04,11,56,14.20
2010,06,04,11,57,14.30
2010,06,04,11,58,14.30
2010,06,04,11,59,14.30
2010,06,04,12,00,14.20
2010,06,04,12,01,14.30
2010,06,04,12,02,14.40
2010,06,04,12,03,14.50
2010,06,04,12,04,14.70
2010,06,04,12,05,14.80
2010,06,04,12,06,14.90
2010,06,04,12,07,15.00
2010,06,04,12,08,15.00
2010,06,04,12,09,15.10
2010,06,04,12,10,15.10
2010,06,04,12,11,15.00
2010,06,04,12,12,15.00
2010,06,04,12,13,14.90
2010,06,04,12,14,14.90
2010,06,04,12,15,14.90
2010,06,04,12,16,14.90
2010,06,04,12,17,15.00
2010,06,04,12,18,15.10
2010,06,04,12,19,15.20
2010,06,04,12,20,15.20
2010,06,04,12,21,15.20
2010,06,04,12,22,15.10
2010,06,04,12,23,15.20
2010,06,04,12,24,15.20
2010,06,04,12,25,15.10
2010,06,04,12,26,15.10
2010,06,04,12,27,15.10
2010,06,04,12,28,15.10
2010,06,04,12,29,15.20
2010,06,04,12,30,15.20
2010,06,04,12,31,15.20
2010,06,04,12,32,15.30
2010,06,04,12,33,15.40
2010,06,04,12,34,15.50
2010,06,04,12,35,15.60
2010,06,04,12,36,15.50
2010,06,04,12,37,15.40
2010,06,04,12,38,15.40
2010,06,04,12,39,15.40
2010,06,04,12,40,15.40
2010,06,04,12,41,15.40
2010,06,04,12,42,15.50
2010,06,04,12,43,15.50
2010,06,04,12,44,15.50
2010,06,04,12,45,15.40
2010,06,04,12,46,15.50
2010,06,04,12,47,15.60
2010,06,04,12,48,15.70
2010,06,04,12,49,15.80
2010,06,04,12,50,15.70
2010,06,04,12,51,15.80
2010,06,04,12,52,15.80
2010,06,04,12,53,15.80
2010,06,04,12,54,15.80
2010,06,04,12,55,15.80
2010,06,04,12,56,15.80
2010,06,04,12,57,15.80
2010,06,04,12,58,15.90
2010,06,04,12,59,15.90
2010,06,04,13,00,15.90
2010,06,04,13,01,16.00
2010,06,04,13,02,16.10
2010,06,04,13,03,16.20
2010,06,04,13,04,16.30
2010,06,04,13,05,16.40
2010,06,04,13,06,16.40
2010,06,04,13,07,16.40
2010,06,04,13,08,16.40
2010,06,04,13,09,16.50
2010,06,04,13,10,16.40
2010,06,04,13,11,16.30
2010,06,04,13,12,16.20
2010,06,04,13,13,16.20
2010,06,04,13,14,16.20
2010,06,04,13,15,16.30
2010,06,04,13,16,16.30
2010,06,04,13,17,16.20
2010,06,04,13,18,16.30
2010,06,04,13,19,16.40
2010,06,04,13,20,16.40
2010,06,04,13,21,16.40
2010,06,04,13,22,16.40
2010,06,04,13,23,16.50
2010,06,04,13,24,16.50
2010,06,04,13,25,16.60
2010,06,04,13,26,16.70
2010,06,04,13,27,16.70
2010,06,04,13,28,16.90
2010,06,04,13,29,16.90
2010,06,04,13,30,16.90
2010,06,04,13,31,16.90
2010,06,04,13,32,16.80
2010,06,04,13,33,16.80
2010,06,04,13,34,16.80
2010,06,04,13,35,16.70
2010,06,04,13,36,16.70
2010,06,04,13,37,16.70
2010,06,04,13,38,16.60
2010,06,04,13,39,16.60
2010,06,04,13,40,16.60
2010,06,04,13,41,16.80
2010,06,04,13,42,16.80
2010,06,04,13,43,16.90
2010,06,04,13,44,17.00
2010,06,04,13,45,17.00
2010,06,04,13,46,17.00
2010,06,04,13,47,16.90
2010,06,04,13,48,16.90
2010,06,04,13,49,16.90
2010,06,04,13,50,17.00
2010,06,04,13,51,17.10
2010,06,04,13,52,17.20
2010,06,04,13,53,17.20
2010,06,04,13,54,17.20
2010,06,04,13,55,17.20
2010,06,04,13,56,17.10
2010,06,04,13,57,17.00
2010,06,04,13,58,17.00
2010,06,04,13,59,17.00
2010,06,04,14,00,17.10
2010,06,04,14,01,17.10
2010,06,04,14,02,17.00
2010,06,04,14,03,17.00
2010,06,04,14,04,16.90
2010,06,04,14,05,16.90
2010,06,04,14,06,16.90
2010,06,04,14,07,16.80
2010,06,04,14,08,16.70
2010,06,04,14,09,16.70
2010,06,04,14,10,16.70
2010,06,04,14,11,16.80
2010,06,04,14,12,16.90
2010,06,04,14,13,17.00
2010,06,04,14,14,17.20
2010,06,04,14,15,17.10
2010,06,04,14,16,17.00
2010,06,04,14,17,17.00
2010,06,04,14,18,17.10
2010,06,04,14,19,17.20
2010,06,04,14,20,17.30
2010,06,04,14,21,17.30
2010,06,04,14,22,17.20
2010,06,04,14,23,17.10
2010,06,04,14,24,17.10
2010,06,04,14,25,17.10
2010,06,04,14,26,17.10
2010,06,04,14,27,17.10
2010,06,04,14,28,17.20
2010,06,04,14,29,17.20
2010,06,04,14,30,17.10
2010,06,04,14,31,17.00
2010,06,04,14,32,17.00
2010,06,04,14,33,17.10
2010,06,04,14,34,17.10
2010,06,04,14,35,17.00
2010,06,04,14,36,17.00
2010,06,04,14,37,17.10
2010,06,04,14,38,17.20
2010,06,04,14,39,17.20
2010,06,04,14,40,17.20
2010,06,04,14,41,17.10
2010,06,04,14,42,17.00
2010,06,04,14,43,17.00
2010,06,04,14,44,17.00
2010,06,04,14,45,17.00
2010,06,04,14,46,17.00
2010,06,04,14,47,17.00
2010,06,04,14,48,17.00
2010,06,04,14,49,17.10
2010,06,04,14,50,17.10
2010,06,04,14,51,17.20
2010,06,04,14,52,17.30
2010,06,04,14,53,17.30
2010,06,04,14,54,17.30
2010,06,04,14,55,17.20
2010,06,04,14,56,17.10
2010,06,04,14,57,17.10
2010,06,04,14,58,17.10
2010,06,04,14,59,17.00
2010,06,04,15,00,17.00
2010,06,04,15,01,17.00
2010,06,04,15,02,17.00
2010,06,04,15,03,17.10
2010,06,04,15,04,17.10
2010,06,04,15,05,17.10
2010,06,04,15,06,17.00
2010,06,04,15,07,17.00
2010,06,04,15,08,16.90
2010,06,04,15,09,16.90
2010,06,04,15,10,16.90
2010,06,04,15,11,16.90
2010,06,04,15,12,16.90
2010,06,04,15,13,16.90
2010,06,04,15,14,16.90
2010,06,04,15,15,16.90
2010,06,04,15,16,16.90
2010,06,04,15,17,17.00
2010,06,04,15,18,17.00
2010,06,04,15,19,17.00
2010,06,04,15,20,17.00
2010,06,04,15,21,17.00
2010,06,04,15,22,17.10
2010,06,04,15,23,17.10
2010,06,04,15,24,17.10
2010,06,04,15,25,17.00
2010,06,04,15,26,17.00
2010,06,04,15,27,17.00
2010,06,04,15,28,17.00
2010,06,04,15,29,17.00
2010,06,04,15,30,16.90
2010,06,04,15,31,16.90
2010,06,04,15,32,16.90
2010,06,04,15,33,17.00
2010,06,04,15,34,17.00
2010,06,04,15,35,17.00
2010,06,04,15,36,17.00
2010,06,04,15,37,17.10
2010,06,04,15,38,17.10
2010,06,04,15,39,17.10
2010,06,04,15,40,17.10
2010,06,04,15,41,17.00
2010,06,04,15,42,16.90
2010,06,04,15,43,16.80
2010,06,04,15,44,16.80
2010,06,04,15,45,16.90
2010,06,04,15,46,16.90
2010,06,04,15,47,17.00
2010,06,04,15,48,17.00
2010,06,04,15,49,17.00
2010,06,04,15,50,17.00
2010,06,04,15,51,17.00
2010,06,04,15,52,17.00
2010,06,04,15,53,17.00
2010,06,04,15,54,16.90
2010,06,04,15,55,17.00
2010,06,04,15,56,17.00
2010,06,04,15,57,17.00
2010,06,04,15,58,16.90
2010,06,04,15,59,16.90
2010,06,04,16,00,16.90
2010,06,04,16,01,16.90
2010,06,04,16,02,16.90
2010,06,04,16,03,16.90
2010,06,04,16,04,16.80
2010,06,04,16,05,16.70
2010,06,04,16,06,16.70
2010,06,04,16,07,16.80
2010,06,04,16,08,16.80
2010,06,04,16,09,16.90
2010,06,04,16,10,17.00
2010,06,04,16,11,17.00
2010,06,04,16,12,16.90
2010,06,04,16,13,17.10
2010,06,04,16,14,17.20
2010,06,04,16,15,17.30
2010,06,04,16,16,17.40
2010,06,04,16,17,17.40
2010,06,04,16,18,17.30
2010,06,04,16,19,17.30
2010,06,04,16,20,17.30
2010,06,04,16,21,17.10
2010,06,04,16,22,17.10
2010,06,04,16,23,17.10
2010,06,04,16,24,17.20
2010,06,04,16,25,17.30
2010,06,04,16,26,17.40
2010,06,04,16,27,17.50
2010,06,04,16,28,17.50
2010,06,04,16,29,17.40
2010,06,04,16,30,17.30
2010,06,04,16,31,17.30
2010,06,04,16,32,17.30
2010,06,04,16,33,17.20
2010,06,04,16,34,17.10
2010,06,04,16,35,17.10
2010,06,04,16,36,17.10
2010,06,04,16,37,17.20
2010,06,04,16,38,17.20
2010,06,04,16,39,17.20
2010,06,04,16,40,17.10
2010,06,04,16,41,17.10
2010,06,04,16,42,17.10
2010,06,04,16,43,17.10
2010,06,04,16,44,17.00
2010,06,04,16,45,17.00
2010,06,04,16,46,17.00
2010,06,04,16,47,16.90
2010,06,04,16,48,16.90
2010,06,04,16,49,16.90
2010,06,04,16,50,16.90
2010,06,04,16,51,16.90
2010,06,04,16,52,16.80
2010,06,04,16,53,16.70
2010,06,04,16,54,16.70
2010,06,04,16,55,16.70
2010,06,04,16,56,16.80
2010,06,04,16,57,16.80
2010,06,04,16,58,16.80
2010,06,04,16,59,16.80
2010,06,04,17,00,16.80
2010,06,04,17,01,16.90
2010,06,04,17,02,17.00
2010,06,04,17,03,17.10
2010,06,04,17,04,17.00
2010,06,04,17,05,17.00
2010,06,04,17,06,17.00
2010,06,04,17,07,16.90
2010,06,04,17,08,16.80
2010,06,04,17,09,16.70
2010,06,04,17,10,16.70
2010,06,04,17,11,16.70
2010,06,04,17,12,16.70
2010,06,04,17,13,16.70
2010,06,04,17,14,16.60
2010,06,04,17,15,16.60
2010,06,04,17,16,16.50
2010,06,04,17,17,16.40
2010,06,04,17,18,16.50
2010,06,04,17,19,16.60
2010,06,04,17,20,16.60
2010,06,04,17,21,16.70
2010,06,04,17,22,16.70
2010,06,04,17,23,16.70
2010,06,04,17,24,16.70
2010,06,04,17,25,16.70
2010,06,04,17,26,16.70
2010,06,04,17,27,16.70
2010,06,04,17,28,16.70
2010,06,04,17,29,16.60
2010,06,04,17,30,16.50
2010,06,04,17,31,16.50
2010,06,04,17,32,16.60
2010,06,04,17,33,16.60
2010,06,04,17,34,16.60
2010,06,04,17,35,16.60
2010,06,04,17,36,16.60
2010,06,04,17,37,16.60
2010,06,04,17,38,16.60
2010,06,04,17,39,16.50
2010,06,04,17,40,16.40
2010,06,04,17,41,16.40
2010,06,04,17,42,16.40
2010,06,04,17,43,16.40
2010,06,04,17,44,16.50
2010,06,04,17,45,16.60
2010,06,04,17,46,16.60
2010,06,04,17,47,16.60
2010,06,04,17,48,16.50
2010,06,04,17,49,16.40
2010,06,04,17,50,16.30
2010,06,04,17,51,16.20